Location: Unspecified
(0.0000°N, 0.0000°E)
Time: 03:46:23
(UTC+01:00)

Hubble Space Telescope - Pass Details

Date: 26 October 2021
Orbit: 535 x 538 km, 28.5° (Epoch: 27 November)

Event Time Altitude Azimuth Distance (km) Brightness Sun altitude
Exits shadow 05:48:19 34° 78° (ENE) 883 2.2 -28.2°
Drops below altitude 10° 05:51:02 10° 104° (ESE) 1,782 4.4 -27.5°
Sets 05:53:22 0° 110° (ESE) 2,674 5.6 -26.9°
